• In Latvia
  • List of Countries
  • For 7 days
  • Water Temperature
  • Satellite Maps
  • Weather Map
  • Weather Widgets
  • user-avatar
    Login

    Hourly Weather Barra

    Today, 24 November, Friday

    Time Temperature Precipitation Wind Pressure Humidity
    00:00 +24°C° 0.1 mm 2 mps 747 mmHg 91%
    01:00 +24°C° 0.1 mm 2 mps 747 mmHg 92%
    02:00 +24°C° 0.4 mm 2 mps 747 mmHg 93%
    03:00 +24°C° 0.4 mm 2 mps 747 mmHg 94%
    04:00 +23°C° 0 mm 2 mps 747 mmHg 96%
    05:00 +24°C° 0.1 mm 2 mps 747 mmHg 92%
    06:00 +25°C° 0.1 mm 2 mps 747 mmHg 89%
    07:00 +25°C° 0.1 mm 2 mps 748 mmHg 86%
    08:00 +27°C° 0.1 mm 2 mps 748 mmHg 77%
    09:00 +29°C° 0.1 mm 3 mps 748 mmHg 67%
    10:00 +31°C° 0.1 mm 3 mps 748 mmHg 58%
    11:00 +33°C° 0 mm 3 mps 747 mmHg 56%
    12:00 +33°C° 0 mm 3 mps 747 mmHg 55%
    13:00 +34°C° 0 mm 4 mps 747 mmHg 53%
    14:00 +33°C° 0.1 mm 3 mps 746 mmHg 56%
    15:00 +31°C° 0.1 mm 3 mps 746 mmHg 58%
    16:00 +31°C° 0.1 mm 3 mps 746 mmHg 60%
    17:00 +29°C° 0 mm 3 mps 746 mmHg 68%
    18:00 +28°C° 0 mm 2 mps 747 mmHg 75%
    19:00 +26°C° 0 mm 2 mps 747 mmHg 83%
    20:00 +26°C° 0 mm 2 mps 747 mmHg 86%
    21:00 +25°C° 0 mm 2 mps 748 mmHg 88%
    22:00 +25°C° 0 mm 2 mps 748 mmHg 91%
    23:00 +25°C° 0 mm 2 mps 748 mmHg 92%

    Tomorrow, 25 November, Saturday

    Time Temperature Precipitation Wind Pressure Humidity
    00:00 +25°C° 0 mm 2 mps 748 mmHg 93%
    01:00 +24°C° 0 mm 2 mps 747 mmHg 94%
    02:00 +24°C° 0.1 mm 2 mps 747 mmHg 94%
    03:00 +24°C° 0.1 mm 2 mps 747 mmHg 94%
    04:00 +24°C° 0.1 mm 2 mps 747 mmHg 95%
    05:00 +25°C° 0 mm 2 mps 747 mmHg 91%
    06:00 +25°C° 0 mm 2 mps 748 mmHg 88%
    07:00 +26°C° 0 mm 2 mps 748 mmHg 85%
    08:00 +28°C° 0 mm 2 mps 748 mmHg 75%
    09:00 +30°C° 0 mm 3 mps 748 mmHg 65%
    10:00 +33°C° 0 mm 3 mps 748 mmHg 54%
    11:00 +33°C° 0 mm 3 mps 748 mmHg 51%
    12:00 +34°C° 0 mm 3 mps 747 mmHg 48%
    13:00 +35°C° 0 mm 4 mps 747 mmHg 44%
    14:00 +34°C° 0 mm 3 mps 746 mmHg 45%
    15:00 +34°C° 0 mm 3 mps 746 mmHg 46%
    16:00 +33°C° 0 mm 3 mps 745 mmHg 47%
    17:00 +30°C° 0 mm 3 mps 746 mmHg 56%
    18:00 +28°C° 0 mm 2 mps 746 mmHg 65%
    19:00 +26°C° 0 mm 1 mps 746 mmHg 74%
    20:00 +26°C° 0 mm 1 mps 747 mmHg 78%
    21:00 +25°C° 0 mm 1 mps 747 mmHg 83%
    22:00 +25°C° 0 mm 1 mps 748 mmHg 87%
    23:00 +24°C° 0 mm 1 mps 748 mmHg 89%

    Day after tomorrow, 26 November, Sunday

    Time Temperature Precipitation Wind Pressure Humidity
    00:00 +24°C° 0 mm 2 mps 747 mmHg 91%
    01:00 +24°C° 0 mm 2 mps 747 mmHg 93%
    02:00 +24°C° 0 mm 2 mps 747 mmHg 93%
    03:00 +24°C° 0 mm 2 mps 746 mmHg 94%
    04:00 +24°C° 0 mm 2 mps 746 mmHg 95%
    05:00 +24°C° 0 mm 2 mps 746 mmHg 90%
    06:00 +25°C° 0 mm 2 mps 747 mmHg 86%
    07:00 +26°C° 0 mm 2 mps 747 mmHg 82%
    08:00 +28°C° 0 mm 3 mps 747 mmHg 71%
    09:00 +30°C° 0 mm 3 mps 748 mmHg 61%
    10:00 +33°C° 0 mm 3 mps 748 mmHg 50%
    11:00 +34°C° 0 mm 4 mps 747 mmHg 47%
    12:00 +35°C° 0 mm 4 mps 747 mmHg 43%
    13:00 +35°C° 0 mm 4 mps 746 mmHg 40%
    14:00 +35°C° 0 mm 4 mps 746 mmHg 41%
    15:00 +34°C° 0 mm 4 mps 745 mmHg 43%
    16:00 +34°C° 0 mm 3 mps 745 mmHg 45%
    17:00 +30°C° 0 mm 3 mps 745 mmHg 54%
    18:00 +28°C° 0 mm 2 mps 745 mmHg 64%
    19:00 +26°C° 0 mm 2 mps 746 mmHg 73%
    20:00 +26°C° 0 mm 2 mps 746 mmHg 78%
    21:00 +25°C° 0 mm 1 mps 747 mmHg 82%
    22:00 +25°C° 0 mm 1 mps 747 mmHg 87%
    23:00 +24°C° 0 mm 1 mps 747 mmHg 89%

    27 November, Monday

    Time Temperature Precipitation Wind Pressure Humidity
    00:00 +24°C° 0 mm 2 mps 746 mmHg 91%
    01:00 +24°C° 0 mm 2 mps 746 mmHg 93%
    02:00 +24°C° 0 mm 2 mps 746 mmHg 94%
    03:00 +23°C° 0 mm 2 mps 745 mmHg 95%
    04:00 +23°C° 0 mm 2 mps 745 mmHg 95%
    05:00 +24°C° 0 mm 2 mps 746 mmHg 91%
    06:00 +25°C° 0 mm 2 mps 746 mmHg 86%
    07:00 +26°C° 0 mm 2 mps 746 mmHg 82%
    08:00 +28°C° 0 mm 3 mps 746 mmHg 72%
    09:00 +30°C° 0 mm 3 mps 747 mmHg 62%
    10:00 +33°C° 0 mm 3 mps 747 mmHg 52%
    11:00 +33°C° 0 mm 3 mps 746 mmHg 49%
    12:00 +34°C° 0 mm 4 mps 746 mmHg 45%
    13:00 +35°C° 0 mm 4 mps 745 mmHg 41%
    14:00 +34°C° 0 mm 4 mps 745 mmHg 43%
    15:00 +34°C° 0 mm 4 mps 744 mmHg 44%
    16:00 +33°C° 0 mm 3 mps 744 mmHg 45%
    17:00 +30°C° 0 mm 3 mps 744 mmHg 55%
    18:00 +28°C° 0 mm 3 mps 745 mmHg 65%
    19:00 +26°C° 0 mm 2 mps 745 mmHg 75%
    20:00 +25°C° 0 mm 2 mps 746 mmHg 81%
    21:00 +25°C° 0 mm 2 mps 746 mmHg 86%
    22:00 +24°C° 0 mm 2 mps 747 mmHg 91%
    23:00 +24°C° 0.1 mm 2 mps 746 mmHg 91%

    28 November, Tuesday

    Time Temperature Precipitation Wind Pressure Humidity
    00:00 +24°C° 0.1 mm 2 mps 746 mmHg 92%
    01:00 +24°C° 0.1 mm 2 mps 746 mmHg 92%
    02:00 +24°C° 0.1 mm 2 mps 745 mmHg 93%
    03:00 +24°C° 0.1 mm 2 mps 745 mmHg 93%
    04:00 +24°C° 0.1 mm 2 mps 745 mmHg 93%
    05:00 +25°C° 0.1 mm 3 mps 746 mmHg 91%
    06:00 +25°C° 0.1 mm 3 mps 746 mmHg 88%
    07:00 +26°C° 0.1 mm 3 mps 747 mmHg 86%
    08:00 +27°C° 0.2 mm 3 mps 747 mmHg 78%
    09:00 +29°C° 0.2 mm 3 mps 747 mmHg 70%
    10:00 +30°C° 0.2 mm 3 mps 747 mmHg 62%
    11:00 +31°C° 0.1 mm 3 mps 746 mmHg 58%
    12:00 +33°C° 0.1 mm 3 mps 746 mmHg 54%
    13:00 +33°C° 0.1 mm 4 mps 746 mmHg 50%
    14:00 +33°C° 0.1 mm 3 mps 745 mmHg 53%
    15:00 +31°C° 0.1 mm 3 mps 745 mmHg 55%
    16:00 +31°C° 0.1 mm 3 mps 745 mmHg 57%
    17:00 +29°C° 0.1 mm 3 mps 746 mmHg 64%
    18:00 +28°C° 0.1 mm 3 mps 746 mmHg 72%
    19:00 +26°C° 0.1 mm 2 mps 747 mmHg 80%
    20:00 +26°C° 0.2 mm 2 mps 747 mmHg 83%
    21:00 +25°C° 0.2 mm 2 mps 747 mmHg 87%
    22:00 +25°C° 0.2 mm 2 mps 748 mmHg 90%
    23:00 +25°C° 0.1 mm 2 mps 747 mmHg 91%

    29 November, Wednesday

    Time Temperature Precipitation Wind Pressure Humidity
    00:00 +25°C° 0.1 mm 2 mps 747 mmHg 92%
    01:00 +25°C° 0.1 mm 2 mps 746 mmHg 93%
    02:00 +24°C° 0.2 mm 2 mps 746 mmHg 93%
    03:00 +24°C° 0.2 mm 2 mps 746 mmHg 93%
    04:00 +24°C° 0.2 mm 3 mps 746 mmHg 93%
    05:00 +25°C° 0.3 mm 3 mps 747 mmHg 90%
    06:00 +26°C° 0.3 mm 3 mps 747 mmHg 87%
    07:00 +26°C° 0.3 mm 3 mps 748 mmHg 84%
    08:00 +28°C° 0.2 mm 3 mps 748 mmHg 76%
    09:00 +29°C° 0.2 mm 3 mps 748 mmHg 68%
    10:00 +32°C° 0.2 mm 4 mps 747 mmHg 60%
    11:00 +33°C° 0.1 mm 4 mps 747 mmHg 57%
    12:00 +34°C° 0.1 mm 4 mps 746 mmHg 54%
    13:00 +34°C° 0.1 mm 4 mps 746 mmHg 51%
    14:00 +34°C° 0.1 mm 4 mps 745 mmHg 53%
    15:00 +33°C° 0.1 mm 4 mps 745 mmHg 56%
    16:00 +32°C° 0.1 mm 4 mps 745 mmHg 58%
    17:00 +30°C° 0 mm 4 mps 745 mmHg 66%
    18:00 +28°C° 0 mm 3 mps 746 mmHg 73%
    19:00 +27°C° 0 mm 3 mps 746 mmHg 81%
    20:00 +26°C° 0 mm 2 mps 747 mmHg 85%
    21:00 +26°C° 0 mm 2 mps 747 mmHg 88%
    22:00 +25°C° 0 mm 2 mps 747 mmHg 92%
    23:00 +25°C° 0.5 mm 2 mps 747 mmHg 92%
    Show more